Track COSMOS 2436 (GLONASS) now! COSMOS 2436 (GLONASS) is classified as:
1 32395U 07065C 24325.67752888 .00000003 00000-0 00000-0 0 9990 2 32395 64.3241 211.3439 0017238 5.6923 171.0442 2.13100047131500